When you browse on this site, cookies collect data to enhance your experience and personalize the content and advertising you see.
Visit our Privacy Policy to learn more. By continuing to use the site, you agree to this use of cookies and data.
  • In Switzerland
  • List of Countries
  • For 7 days
  • Water Temperature
  • Weather Map
  • Weather Widgets
  • user-avatar
    Login

    Hourly Weather Da Nang

    Today, 13 November, Wednesday

    Time Temperature Precipitation Wind Pressure Humidity
    00:00 +25°C° 0.2 mm 2 mps 758 mmHg 97%
    01:00 +25°C° 0.2 mm 1 mps 758 mmHg 97%
    02:00 +25°C° 0.1 mm 1 mps 758 mmHg 97%
    03:00 +24°C° 0.1 mm 1 mps 758 mmHg 97%
    04:00 +24°C° 0.1 mm 1 mps 758 mmHg 97%
    05:00 +25°C° 0.1 mm 1 mps 758 mmHg 97%
    06:00 +25°C° 0.1 mm 1 mps 759 mmHg 96%
    07:00 +25°C° 0.1 mm 1 mps 759 mmHg 96%
    08:00 +27°C° 0.2 mm 1 mps 760 mmHg 90%
    09:00 +28°C° 0.2 mm 1 mps 760 mmHg 84%
    10:00 +30°C° 0.2 mm 1 mps 761 mmHg 79%
    11:00 +30°C° 0.6 mm 2 mps 760 mmHg 82%
    12:00 +29°C° 0.6 mm 2 mps 759 mmHg 85%
    13:00 +29°C° 0.6 mm 3 mps 758 mmHg 88%
    14:00 +28°C° 0.9 mm 3 mps 758 mmHg 91%
    15:00 +27°C° 0.9 mm 4 mps 758 mmHg 93%
    16:00 +27°C° 0.9 mm 4 mps 759 mmHg 95%
    17:00 +26°C° 0.4 mm 3 mps 759 mmHg 95%
    18:00 +26°C° 0.4 mm 3 mps 759 mmHg 96%
    19:00 +26°C° 0.4 mm 3 mps 760 mmHg 96%
    20:00 +25°C° 0.1 mm 3 mps 760 mmHg 96%
    21:00 +25°C° 0.1 mm 3 mps 761 mmHg 96%
    22:00 +25°C° 0.1 mm 2 mps 761 mmHg 95%
    23:00 +24°C° 0.1 mm 2 mps 761 mmHg 95%

    Tomorrow, 14 November, Thursday

    Time Temperature Precipitation Wind Pressure Humidity
    00:00 +24°C° 0.1 mm 2 mps 761 mmHg 95%
    01:00 +24°C° 0.1 mm 2 mps 761 mmHg 95%
    02:00 +24°C° 0.2 mm 2 mps 761 mmHg 95%
    03:00 +24°C° 0.2 mm 2 mps 761 mmHg 95%
    04:00 +24°C° 0.2 mm 3 mps 761 mmHg 95%
    05:00 +24°C° 0.2 mm 3 mps 761 mmHg 94%
    06:00 +24°C° 0.2 mm 3 mps 761 mmHg 94%
    07:00 +25°C° 0.2 mm 2 mps 761 mmHg 93%
    08:00 +26°C° 0.3 mm 3 mps 761 mmHg 89%
    09:00 +27°C° 0.3 mm 3 mps 762 mmHg 85%
    10:00 +28°C° 0.3 mm 3 mps 762 mmHg 81%
    11:00 +28°C° 0.8 mm 3 mps 761 mmHg 83%
    12:00 +27°C° 0.8 mm 3 mps 760 mmHg 85%
    13:00 +27°C° 0.8 mm 4 mps 759 mmHg 88%
    14:00 +27°C° 0.9 mm 4 mps 759 mmHg 89%
    15:00 +26°C° 0.9 mm 4 mps 759 mmHg 91%
    16:00 +26°C° 0.9 mm 4 mps 759 mmHg 93%
    17:00 +25°C° 0.5 mm 3 mps 759 mmHg 94%
    18:00 +24°C° 0.5 mm 3 mps 759 mmHg 95%
    19:00 +24°C° 0.5 mm 3 mps 760 mmHg 96%
    20:00 +24°C° 0.3 mm 2 mps 760 mmHg 95%
    21:00 +24°C° 0.3 mm 2 mps 760 mmHg 95%
    22:00 +24°C° 0.3 mm 2 mps 760 mmHg 95%
    23:00 +24°C° 0.2 mm 2 mps 760 mmHg 95%

    Day after tomorrow, 15 November, Friday

    Time Temperature Precipitation Wind Pressure Humidity
    00:00 +23°C° 0.2 mm 2 mps 759 mmHg 95%
    01:00 +23°C° 0.2 mm 2 mps 759 mmHg 95%
    02:00 +23°C° 0.3 mm 2 mps 759 mmHg 95%
    03:00 +23°C° 0.3 mm 2 mps 759 mmHg 95%
    04:00 +23°C° 0.3 mm 2 mps 758 mmHg 96%
    05:00 +24°C° 0.2 mm 2 mps 759 mmHg 95%
    06:00 +24°C° 0.2 mm 2 mps 759 mmHg 94%
    07:00 +25°C° 0.2 mm 2 mps 760 mmHg 93%
    08:00 +26°C° 0.1 mm 2 mps 760 mmHg 87%
    09:00 +27°C° 0.1 mm 2 mps 760 mmHg 81%
    10:00 +29°C° 0.1 mm 2 mps 760 mmHg 75%
    11:00 +29°C° 0.2 mm 3 mps 759 mmHg 75%
    12:00 +29°C° 0.2 mm 3 mps 758 mmHg 76%
    13:00 +29°C° 0.2 mm 3 mps 758 mmHg 76%
    14:00 +28°C° 0.3 mm 3 mps 757 mmHg 81%
    15:00 +27°C° 0.3 mm 3 mps 757 mmHg 87%
    16:00 +26°C° 0.3 mm 3 mps 757 mmHg 92%
    17:00 +25°C° 0.2 mm 2 mps 757 mmHg 94%
    18:00 +25°C° 0.2 mm 2 mps 758 mmHg 95%
    19:00 +24°C° 0.2 mm 2 mps 758 mmHg 97%
    20:00 +24°C° 0.2 mm 2 mps 758 mmHg 96%
    21:00 +24°C° 0.2 mm 2 mps 758 mmHg 96%
    22:00 +24°C° 0.2 mm 2 mps 759 mmHg 96%
    23:00 +24°C° 0.2 mm 1 mps 758 mmHg 96%

    16 November, Saturday

    Time Temperature Precipitation Wind Pressure Humidity
    00:00 +24°C° 0.2 mm 1 mps 758 mmHg 96%
    01:00 +24°C° 0.2 mm 1 mps 758 mmHg 96%
    02:00 +24°C° 0.2 mm 1 mps 757 mmHg 96%
    03:00 +24°C° 0.2 mm 1 mps 757 mmHg 96%
    04:00 +21°C° 0.2 mm 0 mps 757 mmHg 96%
    05:00 +24°C° 0 mm 1 mps 758 mmHg 96%
    06:00 +24°C° 0 mm 1 mps 758 mmHg 95%
    07:00 +24°C° 0 mm 1 mps 759 mmHg 95%
    08:00 +26°C° 0 mm 1 mps 759 mmHg 85%
    09:00 +28°C° 0 mm 1 mps 759 mmHg 75%
    10:00 +28°C° 0 mm 0 mps 759 mmHg 65%
    11:00 +30°C° 0.1 mm 1 mps 758 mmHg 66%
    12:00 +30°C° 0.1 mm 1 mps 757 mmHg 67%
    13:00 +31°C° 0.1 mm 2 mps 756 mmHg 68%
    14:00 +30°C° 0.1 mm 2 mps 756 mmHg 74%
    15:00 +29°C° 0.1 mm 2 mps 756 mmHg 79%
    16:00 +28°C° 0.1 mm 3 mps 756 mmHg 85%
    17:00 +27°C° 0.1 mm 2 mps 756 mmHg 89%
    18:00 +26°C° 0.1 mm 2 mps 757 mmHg 93%
    19:00 +25°C° 0.1 mm 2 mps 757 mmHg 96%
    20:00 +25°C° 0.1 mm 2 mps 758 mmHg 96%
    21:00 +25°C° 0.1 mm 1 mps 758 mmHg 97%
    22:00 +25°C° 0.1 mm 1 mps 758 mmHg 97%
    23:00 +24°C° 0.1 mm 1 mps 758 mmHg 96%

    17 November, Sunday

    Time Temperature Precipitation Wind Pressure Humidity
    00:00 +24°C° 0.1 mm 1 mps 757 mmHg 96%
    01:00 +24°C° 0.1 mm 1 mps 757 mmHg 96%
    02:00 +24°C° 0.1 mm 1 mps 757 mmHg 96%
    03:00 +24°C° 0.1 mm 1 mps 757 mmHg 96%
    04:00 +24°C° 0.1 mm 1 mps 757 mmHg 96%
    05:00 +24°C° 0 mm 1 mps 758 mmHg 94%
    06:00 +25°C° 0 mm 1 mps 758 mmHg 93%
    07:00 +25°C° 0 mm 1 mps 759 mmHg 92%
    08:00 +27°C° 0 mm 1 mps 759 mmHg 84%
    09:00 +29°C° 0 mm 1 mps 758 mmHg 76%
    10:00 +31°C° 0 mm 1 mps 758 mmHg 68%
    11:00 +31°C° 0 mm 2 mps 758 mmHg 69%
    12:00 +31°C° 0 mm 2 mps 757 mmHg 70%
    13:00 +31°C° 0 mm 2 mps 756 mmHg 71%
    14:00 +30°C° 0 mm 2 mps 756 mmHg 77%
    15:00 +29°C° 0 mm 2 mps 756 mmHg 82%
    16:00 +28°C° 0 mm 2 mps 756 mmHg 87%
    17:00 +27°C° 0 mm 2 mps 756 mmHg 89%
    18:00 +27°C° 0 mm 2 mps 757 mmHg 92%
    19:00 +26°C° 0 mm 1 mps 758 mmHg 94%
    20:00 +26°C° 0 mm 1 mps 758 mmHg 94%
    21:00 +26°C° 0 mm 1 mps 759 mmHg 93%
    22:00 +26°C° 0 mm 1 mps 759 mmHg 93%
    23:00 +26°C° 0 mm 1 mps 759 mmHg 93%

    18 November, Monday

    Time Temperature Precipitation Wind Pressure Humidity
    00:00 +25°C° 0 mm 1 mps 759 mmHg 93%
    01:00 +25°C° 0 mm 1 mps 758 mmHg 93%
    02:00 +25°C° 0 mm 1 mps 758 mmHg 93%
    03:00 +25°C° 0 mm 1 mps 758 mmHg 93%
    04:00 +23°C° 0 mm 0 mps 758 mmHg 92%
    05:00 +23°C° 0 mm 0 mps 759 mmHg 91%
    06:00 +23°C° 0 mm 0 mps 759 mmHg 90%
    07:00 +24°C° 0 mm 0 mps 760 mmHg 89%
    08:00 +27°C° 0 mm 1 mps 760 mmHg 82%
    09:00 +28°C° 0 mm 1 mps 760 mmHg 75%
    10:00 +30°C° 0 mm 2 mps 760 mmHg 69%
    11:00 +30°C° 0 mm 2 mps 759 mmHg 67%
    12:00 +30°C° 0 mm 2 mps 759 mmHg 66%
    13:00 +31°C° 0 mm 2 mps 758 mmHg 64%
    14:00 +30°C° 0 mm 2 mps 758 mmHg 68%
    15:00 +29°C° 0 mm 2 mps 758 mmHg 72%
    16:00 +28°C° 0 mm 2 mps 757 mmHg 76%
    17:00 +27°C° 0 mm 2 mps 758 mmHg 81%
    18:00 +25°C° 0 mm 1 mps 759 mmHg 87%
    19:00 +24°C° 0 mm 1 mps 760 mmHg 93%
    20:00 +23°C° 0.1 mm 1 mps 760 mmHg 93%
    21:00 +23°C° 0.1 mm 1 mps 760 mmHg 93%
    22:00 +23°C° 0.1 mm 1 mps 760 mmHg 93%
    23:00 +23°C° 0.1 mm 1 mps 760 mmHg 94%
    Show more